Regional Weather Roundup
Issued by NWS Upton, NY

Current Version | Previous Version | Graphics & Text | Print | Product List | Glossary Off
Versions: 1 2 3 4 5 6 7 8 9 10 11 12 13 14 15 16 17 18 19 20 21 22 23 24 25 26 27 28 29 30 31 32 33 34 35 36 37 38 39 40 41 42 43 44 45 46 47 48 49 50

000
ASUS41 KOKX 220205
RWROKX

REGIONAL WEATHER ROUNDUP
NATIONAL WEATHER SERVICE NEW YORK NY
900 PM EST FRI NOV 21 2014

NOTE: "FAIR" INDICATES FEW OR NO CLOUDS BELOW 12,000 FEET WITH NO
SIGNIFICANT WEATHER AND/OR OBSTRUCTIONS TO VISIBILITY.

NYZ071-072-176-178-NJZ106-104-220300-
NEW YORK CITY METRO AREA


CITY           SKY/WX    TMP DP  RH WIND       PRES   REMARKS
CENTRAL PARK   CLEAR     31   9  39 VRB6      30.50S WCI  25
LAGUARDIA APRT CLEAR     32  13  45 N6        30.49S WCI  26
KENNEDY INTL   CLEAR     32   9  38 NW9       30.50S WCI  24
NEWARK/LIBERTY FAIR      30   8  39 W5        30.50R WCI  25
BRNX BOT. GARD   N/A    N/A N/A N/A N1        30.51R
TETERBORO      CLEAR     30   9  41 CALM      30.49R
$$

NYZ177-179-078>081-220300-
LONG ISLAND NEW YORK

CITY           SKY/WX    TMP DP  RH WIND       PRES   REMARKS
FARMINGDALE    CLEAR     32   8  36 NW8       30.48S WCI  25
ISLIP          CLEAR     31  10  41 NW12      30.46R WCI  22
SHIRLEY        CLEAR     30  12  47 NW7       30.47R WCI  23
WESTHAMPTON    CLEAR     27  10  49 CALM      30.47S
MONTAUK POINT    N/A     32  11  41 NW15G24   30.46R WCI  22
$$

NYZ052-065-067-220300-
HUDSON VALLEY

CITY           SKY/WX    TMP DP  RH WIND       PRES   REMARKS
WHITE PLAINS   CLEAR     28   8  43 NW9       30.45S WCI  19
NEWBURGH       CLEAR     23  12  63 CALM      30.45S
MONTGOMERY     CLEAR     21  11  65 CALM      30.44S
POUGHKEEPSIE   CLEAR     27  11  51 W3        30.47R
ALBANY         PTCLDY    22  11  62 W8        30.44R WCI  12
$$

NJZ001-105-106-008-010-013-015-019>022-104-220300-
NEW JERSEY

CITY           SKY/WX    TMP DP  RH WIND       PRES   REMARKS
NEWARK/LIBERTY FAIR      30   8  39 W5        30.50R WCI  25
TETERBORO      CLEAR     30   9  41 CALM      30.49R
CALDWELL       CLEAR     24  10  55 CALM      30.49R
MORRISTOWN     NOT AVBL
SOMERVILLE     CLEAR     23  11  60 NW3       30.48R
SUSSEX         CLEAR     19  11  70 CALM      30.45F
ANDOVER          N/A     20  13  74 CALM      30.46S
TRENTON        CLEAR     28   8  43 W3        30.50R
MILLVILLE      CLEAR     20  14  77 W3        30.53S
ATLANTIC CITY  CLEAR     28  11  48 W6        30.53R WCI  22
WRIGHTSTOWN    CLEAR     28   9  45 W6        30.48S WCI  21
TOMS RIVER     CLEAR     23  10  58 CALM      30.51S
BELMAR         CLEAR     28   7  40 W6        30.49S WCI  22
$$

PAZ047>061-062-071-220300-
EASTERN PENNSYLVANIA

CITY           SKY/WX    TMP DP  RH WIND       PRES   REMARKS
PHILADELPHIA   CLEAR     32   9  38 W10       30.54R WCI  24
ALLENTOWN      CLEAR     19   9  65 SW6       30.48S WCI  11
SCRANTON       CLEAR     20   9  62 S8        30.43S WCI  10
$$

CTZ002-004>006-009-010-012-RIZ004-006-007-MAZ004-011-015-220300-
SOUTHERN NEW ENGLAND
 IN CT

CITY           SKY/WX    TMP DP  RH WIND       PRES   REMARKS
BRADLEY INTL   CLEAR     27   9  46 NW8       30.43R WCI  19
HARTFORD       CLEAR     28   9  44 NW9       30.46R WCI  19
DANBURY        CLEAR     26   9  48 VRB6      30.46R WCI  19
WTRBRY/OXFORD  NOT AVBL
BRIDGEPORT     CLEAR     29  12  49 W7        30.47R WCI  22
MERIDEN        CLEAR     22   9  57 CALM      30.46R
NEW HAVEN      CLEAR     31  10  41 NW3       30.46S
CHESTER        FAIR      28   9  43 NW3       30.44S
GROTON         CLEAR     28   8  43 NW8       30.45R WCI  20
WILLIMANTIC    CLEAR     27   9  46 W9        30.43S WCI  18

 IN RI

CITY           SKY/WX    TMP DP  RH WIND       PRES   REMARKS
PROVIDENCE     CLEAR     27   7  42 W9        30.42R WCI  18
BLOCK ISLAND   CLEAR     30   9  40 NW17G26   30.43R WCI  18
WESTERLY       CLEAR     28   6  39 NW7G18    30.45R WCI  21

 IN MA

CITY           SKY/WX    TMP DP  RH WIND       PRES   REMARKS
BOSTON         CLEAR     29   5  36 W12G22    30.38R WCI  19
WORCESTER      CLEAR     23   4  44 W10       30.34R WCI  12
WESTFIELD      CLEAR     26   9  48 CALM      30.42R
PROVINCETOWN   CLEAR     32  10  40 NW20G30   30.36R WCI  20
NANTUCKET      CLEAR     32  10  40 NW15G25   30.38R WCI  22
$$

ANZ330-335-338-340-345-350-353-355-220300-
COASTAL MARINE OBSERVATIONS


STATION/POSITION TIME  SKY/WX   TEMP    WIND        PRES    VSBY  WAVE
                                AIR SEA DIR/SP/G                  HT/PER
                 (UTC)          (F)     (DEG/KT/KT) (MB)    (MI)  (FT/S)
NY HARB ENTRANCE 0200            36 56  320/ 14/ 17 1032.6          2/ 4
4S FIRE IS       0200               53                N/A           3/ 5
20S FIRE ISLAND  0200            36 54  320/ 19/ 25 1031.7          4/ 5
23SW MTP         0200                                 N/A           4/ 4
HUDSON CANYON    0200            39 58  320/ 17/ 23 1031.1          7/ 6
EXECUTION ROCKS  0200            33 48  310/ 10/ 14   N/A
WESTERN LI SOUND 0200            33     310/ 14/ 17   N/A           1/ 3
CENTRAL LI SOUND 0100            33 51  320/ 14/ 16   N/A           2/ 4
EASTERN LI SOUND 0100            33 52  310/ 17/ 25   N/A
ROBBINS REEF     0200            33     340/  5/  7 1031.3
$$


>>>>>>>>>>>>>>>>>>>>>>>>>>>> KEY <<<<<<<<<<<<<<<<<<<<<<<<<<<
>                                                          <
>     SKY/WX - SKY CONDITION/PRESENT WEATHER               <
>     TMP    - TEMPERATURE IN FAHRENHEIT                   <
>     DP     - DEWPOINT IN FAHRENHEIT                      <
>     RH     - RELATIVE HUMIDITY IN PERCENT                <
>     WIND   - DIRECTION AND SPEED IN MPH                  <
>     PRES   - MEAN SEA LEVEL PRESSURE IN INCHES OF HG     <
>     WCI    - WIND CHILL INDEX                            <
>     VSB    - VISIBILITY IN MILES                         <
>     HX     - HEAT INDEX                                  <
>     TC     - TEMPERATURE IN CELSIUS                      <
>     VRB    - VARIABLE WIND DIRECTION                     <
>                                                          <
>>>>>>>>>>>>>>>>>>>>>>>>>>>> KEY <<<<<<<<<<<<<<<<<<<<<<<<<<<





USA.gov is the U.S. government's official web portal to all federal, state and local government web resources and services.